TimeEST,TemperatureF,Dew PointF,Humidity,Sea Level PressureIn,VisibilityMPH,Wind Direction,Wind SpeedMPH,Gust SpeedMPH,PrecipitationIn,Events,Conditions,WindDirDegrees,DateUTC
12:53 AM,44.1,30.9,60,30.22,10.0,West,12.7,-,N/A,,Clear,260,2013-01-10 05:53:00
1:53 AM,44.1,30.0,58,30.24,10.0,West,9.2,-,N/A,,Clear,270,2013-01-10 06:53:00
2:53 AM,44.1,27.0,51,30.27,10.0,West,11.5,23.0,N/A,,Clear,280,2013-01-10 07:53:00
3:53 AM,42.1,26.1,53,30.30,10.0,WNW,8.1,-,N/A,,Clear,290,2013-01-10 08:53:00
4:53 AM,39.0,24.1,55,30.32,10.0,West,9.2,-,N/A,,Clear,280,2013-01-10 09:53:00
5:53 AM,33.1,21.9,64,30.36,10.0,West,4.6,-,N/A,,Clear,280,2013-01-10 10:53:00
6:53 AM,28.9,19.0,67,30.41,10.0,Calm,Calm,-,N/A,,Clear,0,2013-01-10 11:53:00
7:53 AM,28.9,21.9,75,30.45,10.0,Calm,Calm,-,N/A,,Clear,0,2013-01-10 12:53:00
8:53 AM,43.0,21.9,43,30.46,10.0,NW,10.4,-,N/A,,Clear,320,2013-01-10 13:53:00
9:53 AM,44.1,21.0,40,30.48,10.0,NW,15.0,21.9,N/A,,Clear,310,2013-01-10 14:53:00
10:53 AM,46.0,21.0,37,30.46,10.0,NW,15.0,25.3,N/A,,Clear,310,2013-01-10 15:53:00
11:53 AM,46.0,21.0,37,30.44,10.0,NW,16.1,24.2,N/A,,Clear,310,2013-01-10 16:53:00
12:53 PM,46.9,19.9,34,30.41,10.0,NW,20.7,29.9,N/A,,Clear,320,2013-01-10 17:53:00
1:53 PM,46.9,19.9,34,30.44,10.0,NW,16.1,27.6,N/A,,Clear,320,2013-01-10 18:53:00
2:53 PM,46.9,19.9,34,30.45,10.0,NW,13.8,24.2,N/A,,Clear,310,2013-01-10 19:53:00
3:53 PM,46.0,21.0,37,30.48,10.0,NW,12.7,-,N/A,,Clear,310,2013-01-10 20:53:00
4:53 PM,41.0,21.0,45,30.49,10.0,West,8.1,-,N/A,,Clear,280,2013-01-10 21:53:00
5:53 PM,37.0,21.9,54,30.52,10.0,NNW,3.5,-,N/A,,Clear,330,2013-01-10 22:53:00
6:53 PM,32.0,21.0,64,30.53,10.0,NW,4.6,-,N/A,,Clear,310,2013-01-10 23:53:00
7:53 PM,28.0,19.0,69,30.54,10.0,Calm,Calm,-,N/A,,Clear,0,2013-01-11 00:53:00
8:53 PM,34.0,23.0,64,30.55,10.0,NNW,6.9,-,N/A,,Clear,330,2013-01-11 01:53:00
9:53 PM,28.0,19.9,72,30.56,10.0,North,5.8,-,N/A,,Clear,360,2013-01-11 02:53:00
10:53 PM,28.0,21.0,75,30.55,10.0,NNW,3.5,-,N/A,,Clear,340,2013-01-11 03:53:00
11:53 PM,26.1,19.9,78,30.55,10.0,NNW,3.5,-,N/A,,Clear,340,2013-01-11 04:53:00